Weather History for Huron, SD

Change the Weather History Date:

Thursday, April 25, 2013

  Actual Average Record
Temperature  
Mean Temperature 46 °F 51 °F  
Max Temperature 70 °F 64 °F 93 °F (1962)
Min Temperature 22 °F 38 °F 22 °F (2013)
Degree Days  
Heating Degree Days 19 15  
Month to date heating degree days 776 492  
Since 1 July heating degree days 7840 7311  
Cooling Degree Days 0 0  
Month to date cooling degree days 0 0  
Year to date cooling degree days 0 0  
Moisture  
Dew Point 30 °F    
Average Humidity 61    
Maximum Humidity 96    
Minimum Humidity 25    
Precipitation  
Precipitation 0.00 in 0.09 in 1.04 in (1886)
Month to date precipitation 2.82 1.87  
Year to date precipitation 4.98 4.43  
Snow  
Snow 0.00 in 0.00 in 9.00 in (2008)
Month to date snowfall 17.9 3.7  
Since 1 July snowfall 58.3 43.6  
Snow Depth 0.00 in    
Sea Level Pressure  
Sea Level Pressure 30.04 in    
Wind  
Wind Speed 9 mph (South)    
Max Wind Speed 22 mph    
Max Gust Speed 28 mph    
Visibility 10 miles    
Events      
T = Trace of Precipitation, MM = Missing Value Source: NWS Daily Summary

Daily Weather History Graph

Daily Weather History Graph

Search for Another Location

Airport:

Trip Planner

Search our weather history database for the weather conditions in past years. The results will help you decide how hot, cold, wet, or windy it might be!

Date:

Astronomy

Apr. 25, 2013 Rise Set
Actual Time 6:32 AM CDT 8:30 PM CDT
Civil Twilight 6:01 AM CDT 9:01 PM CDT
Nautical Twilight 5:22 AM CDT 9:40 PM CDT
Astronomical Twilight 4:40 AM CDT 10:22 PM CDT
Moon 8:46 PM CDT (4/25) 6:16 AM CDT (4/25)
Length of Visible Light 15h 00m
Length of Day
13h 57m
Full, 100% of the Moon is Illuminated
Apr 25
Full
Apr 25
Full
May 2
Last Quarter
May 9
New
May 17
First Quarter

Hourly Weather History & Observations

Time (CDT) Temp. Windchill Dew Point Humidity Pressure Visibility Wind Dir Wind Speed Gust Speed Precip Events Conditions
12:55 AM 24.1 °F 19.7 °F 21.9 °F 91% 30.21 in 10.0 mi WNW 3.5 mph - N/A   Clear
1:55 AM 25.0 °F 20.7 °F 21.0 °F 85% 30.20 in 10.0 mi West 3.5 mph - N/A   Clear
2:55 AM 24.1 °F 18.2 °F 21.9 °F 91% 30.19 in 10.0 mi SW 4.6 mph - N/A   Clear
3:55 AM 24.1 °F 19.7 °F 21.0 °F 88% 30.19 in 10.0 mi SSW 3.5 mph - N/A   Clear
4:55 AM 23.0 °F 17.0 °F 21.9 °F 96% 30.19 in 10.0 mi SSW 4.6 mph - N/A   Clear
5:55 AM 25.0 °F 20.7 °F 19.9 °F 81% 30.19 in 10.0 mi South 3.5 mph - N/A   Clear
6:55 AM 24.1 °F 18.2 °F 19.9 °F 84% 30.19 in 10.0 mi SSE 4.6 mph - N/A   Clear
7:55 AM 28.9 °F 21.9 °F 24.1 °F 82% 30.19 in 10.0 mi South 6.9 mph - N/A   Clear
8:55 AM 34.0 °F 25.0 °F 25.0 °F 70% 30.18 in 10.0 mi SSE 12.7 mph 17.3 mph N/A   Clear
9:55 AM 39.0 °F 31.4 °F 25.0 °F 57% 30.15 in 10.0 mi SSE 12.7 mph - N/A   Clear
10:55 AM 43.0 °F 36.0 °F 28.0 °F 56% 30.12 in 10.0 mi SSE 13.8 mph - N/A   Clear
11:55 AM 48.9 °F - 32.0 °F 52% 30.09 in 10.0 mi SE 13.8 mph - N/A   Clear
12:55 PM 54.0 °F - 34.0 °F 47% 30.06 in 10.0 mi SSE 15.0 mph - N/A   Clear
1:55 PM 57.0 °F - 34.0 °F 42% 30.01 in 10.0 mi South 17.3 mph 25.3 mph N/A   Clear
2:55 PM 61.0 °F - 36.0 °F 39% 29.99 in 10.0 mi South 15.0 mph 23.0 mph N/A   Clear
3:55 PM 64.0 °F - 36.0 °F 35% 29.93 in 10.0 mi South 12.7 mph 24.2 mph N/A   Clear
4:55 PM 68.0 °F - 34.0 °F 28% 29.88 in 10.0 mi South 13.8 mph 24.2 mph N/A   Clear
5:55 PM 70.0 °F - 32.0 °F 25% 29.84 in 10.0 mi South 16.1 mph 23.0 mph N/A   Clear
6:55 PM 66.0 °F - 36.0 °F 33% 29.83 in 10.0 mi SSE 13.8 mph 20.7 mph N/A   Clear
7:55 PM 62.1 °F - 37.9 °F 41% 29.82 in 10.0 mi SE 9.2 mph - N/A   Clear
8:55 PM 59.0 °F - 39.9 °F 49% 29.83 in 10.0 mi SSE 10.4 mph - N/A   Clear
9:55 PM 54.0 °F - 39.9 °F 59% 29.85 in 10.0 mi SE 6.9 mph - N/A   Clear
10:55 PM 48.9 °F - 39.0 °F 69% 29.86 in 10.0 mi Calm Calm - N/A   Clear
11:55 PM 41.0 °F - 36.0 °F 82% 29.87 in 10.0 mi Calm Calm - N/A   Clear